Location: Sungai Dangang
(2.7500°N, 113.8333°E)
Time: 13:14:18
(UTC+00:00)

Ariane H10+ - Pass Details

Date: 26 September 2021
Orbit: 237 x 7764 km, 6.8° (Epoch: 15 October)

Event Time Altitude Azimuth Distance (km) Brightness Sun altitude
Exits shadow 17:36:55 31° 109° (ESE) 4,338 5.8 -69.7°
Drops below altitude 10° 17:51:04 10° 95° (E) 8,263 7.5 -66.2°
Sets 18:02:12 0° 92° (E) 10,729 8.2 -63.4°
